Year,Month,Day,Hour,Minute,Value (Times are PST for temperature in C)
2016,08,17,00,00,16.60
2016,08,17,00,01,16.60
2016,08,17,00,02,16.60
2016,08,17,00,03,16.60
2016,08,17,00,04,16.60
2016,08,17,00,05,16.60
2016,08,17,00,06,16.60
2016,08,17,00,07,16.60
2016,08,17,00,08,16.50
2016,08,17,00,09,16.50
2016,08,17,00,10,16.50
2016,08,17,00,11,16.60
2016,08,17,00,12,16.50
2016,08,17,00,13,16.50
2016,08,17,00,14,16.50
2016,08,17,00,15,16.50
2016,08,17,00,16,16.50
2016,08,17,00,17,16.50
2016,08,17,00,18,16.50
2016,08,17,00,19,16.50
2016,08,17,00,20,16.50
2016,08,17,00,21,16.50
2016,08,17,00,22,16.50
2016,08,17,00,23,16.50
2016,08,17,00,24,16.50
2016,08,17,00,25,16.50
2016,08,17,00,26,16.50
2016,08,17,00,27,16.50
2016,08,17,00,28,16.50
2016,08,17,00,29,16.40
2016,08,17,00,30,16.50
2016,08,17,00,31,16.50
2016,08,17,00,32,16.50
2016,08,17,00,33,16.50
2016,08,17,00,34,16.50
2016,08,17,00,35,16.50
2016,08,17,00,36,16.50
2016,08,17,00,37,16.50
2016,08,17,00,38,16.50
2016,08,17,00,39,16.50
2016,08,17,00,40,16.50
2016,08,17,00,41,16.50
2016,08,17,00,42,16.50
2016,08,17,00,43,16.60
2016,08,17,00,44,16.60
2016,08,17,00,45,16.50
2016,08,17,00,46,16.50
2016,08,17,00,47,16.50
2016,08,17,00,48,16.50
2016,08,17,00,49,16.50
2016,08,17,00,50,16.50
2016,08,17,00,51,16.50
2016,08,17,00,52,16.50
2016,08,17,00,53,16.50
2016,08,17,00,54,16.50
2016,08,17,00,55,16.50
2016,08,17,00,56,16.50
2016,08,17,00,57,16.50
2016,08,17,00,58,16.50
2016,08,17,00,59,16.50
2016,08,17,01,00,16.50
2016,08,17,01,01,16.50
2016,08,17,01,02,16.50
2016,08,17,01,03,16.40
2016,08,17,01,04,16.50
2016,08,17,01,05,16.40
2016,08,17,01,06,16.50
2016,08,17,01,07,16.50
2016,08,17,01,08,16.50
2016,08,17,01,09,16.50
2016,08,17,01,10,16.50
2016,08,17,01,11,16.50
2016,08,17,01,12,16.50
2016,08,17,01,13,16.50
2016,08,17,01,14,16.50
2016,08,17,01,15,16.50
2016,08,17,01,16,16.50
2016,08,17,01,17,16.50
2016,08,17,01,18,16.50
2016,08,17,01,19,16.60
2016,08,17,01,20,16.60
2016,08,17,01,21,16.60
2016,08,17,01,22,16.60
2016,08,17,01,23,16.60
2016,08,17,01,24,16.60
2016,08,17,01,25,16.60
2016,08,17,01,26,16.50
2016,08,17,01,27,16.50
2016,08,17,01,28,16.50
2016,08,17,01,29,16.60
2016,08,17,01,30,16.60
2016,08,17,01,31,16.60
2016,08,17,01,32,16.60
2016,08,17,01,33,16.60
2016,08,17,01,34,16.60
2016,08,17,01,35,16.60
2016,08,17,01,36,16.70
2016,08,17,01,37,16.70
2016,08,17,01,38,16.70
2016,08,17,01,39,16.70
2016,08,17,01,40,16.70
2016,08,17,01,41,16.70
2016,08,17,01,42,16.70
2016,08,17,01,43,16.70
2016,08,17,01,44,16.70
2016,08,17,01,45,16.70
2016,08,17,01,46,16.80
2016,08,17,01,47,16.80
2016,08,17,01,48,16.80
2016,08,17,01,49,16.80
2016,08,17,01,50,16.80
2016,08,17,01,51,16.80
2016,08,17,01,52,16.90
2016,08,17,01,53,16.90
2016,08,17,01,54,16.90
2016,08,17,01,55,16.80
2016,08,17,01,56,16.80
2016,08,17,01,57,16.80
2016,08,17,01,58,16.80
2016,08,17,01,59,16.80
2016,08,17,02,00,16.80
2016,08,17,02,01,16.80
2016,08,17,02,02,16.80
2016,08,17,02,03,16.80
2016,08,17,02,04,16.80
2016,08,17,02,05,16.90
2016,08,17,02,06,16.90
2016,08,17,02,07,16.90
2016,08,17,02,08,16.90
2016,08,17,02,09,16.90
2016,08,17,02,10,16.90
2016,08,17,02,11,16.90
2016,08,17,02,12,17.00
2016,08,17,02,13,17.00
2016,08,17,02,14,17.00
2016,08,17,02,15,17.10
2016,08,17,02,16,17.10
2016,08,17,02,17,17.10
2016,08,17,02,18,17.00
2016,08,17,02,19,17.10
2016,08,17,02,20,17.10
2016,08,17,02,21,17.10
2016,08,17,02,22,17.10
2016,08,17,02,23,17.10
2016,08,17,02,24,17.10
2016,08,17,02,25,17.10
2016,08,17,02,26,17.10
2016,08,17,02,27,17.10
2016,08,17,02,28,17.10
2016,08,17,02,29,17.10
2016,08,17,02,30,17.10
2016,08,17,02,31,17.10
2016,08,17,02,32,17.10
2016,08,17,02,33,17.10
2016,08,17,02,34,17.10
2016,08,17,02,35,17.10
2016,08,17,02,36,17.00
2016,08,17,02,37,17.00
2016,08,17,02,38,17.00
2016,08,17,02,39,16.90
2016,08,17,02,40,16.90
2016,08,17,02,41,16.90
2016,08,17,02,42,17.00
2016,08,17,02,43,17.00
2016,08,17,02,44,17.00
2016,08,17,02,45,17.00
2016,08,17,02,46,17.00
2016,08,17,02,47,17.00
2016,08,17,02,48,17.10
2016,08,17,02,49,17.10
2016,08,17,02,50,17.10
2016,08,17,02,51,17.10
2016,08,17,02,52,17.10
2016,08,17,02,53,17.10
2016,08,17,02,54,17.10
2016,08,17,02,55,17.00
2016,08,17,02,56,17.00
2016,08,17,02,57,17.10
2016,08,17,02,58,17.10
2016,08,17,02,59,17.00
2016,08,17,03,00,17.00
2016,08,17,03,01,17.00
2016,08,17,03,02,17.00
2016,08,17,03,03,16.90
2016,08,17,03,04,16.90
2016,08,17,03,05,16.90
2016,08,17,03,06,16.90
2016,08,17,03,07,16.90
2016,08,17,03,08,16.90
2016,08,17,03,09,16.90
2016,08,17,03,10,16.80
2016,08,17,03,11,16.80
2016,08,17,03,12,16.80
2016,08,17,03,13,16.80
2016,08,17,03,14,16.80
2016,08,17,03,15,16.80
2016,08,17,03,16,16.80
2016,08,17,03,17,16.80
2016,08,17,03,18,16.80
2016,08,17,03,19,16.80
2016,08,17,03,20,16.80
2016,08,17,03,21,16.80
2016,08,17,03,22,16.80
2016,08,17,03,23,16.80
2016,08,17,03,24,16.80
2016,08,17,03,25,16.70
2016,08,17,03,26,16.70
2016,08,17,03,27,16.70
2016,08,17,03,28,16.70
2016,08,17,03,29,16.70
2016,08,17,03,30,16.60
2016,08,17,03,31,16.60
2016,08,17,03,32,16.60
2016,08,17,03,33,16.60
2016,08,17,03,34,16.60
2016,08,17,03,35,16.60
2016,08,17,03,36,16.60
2016,08,17,03,37,16.50
2016,08,17,03,38,16.50
2016,08,17,03,39,16.50
2016,08,17,03,40,16.40
2016,08,17,03,41,16.40
2016,08,17,03,42,16.30
2016,08,17,03,43,16.30
2016,08,17,03,44,16.30
2016,08,17,03,45,16.20
2016,08,17,03,46,16.20
2016,08,17,03,47,16.20
2016,08,17,03,48,16.10
2016,08,17,03,49,16.10
2016,08,17,03,50,16.10
2016,08,17,03,51,16.10
2016,08,17,03,52,16.00
2016,08,17,03,53,16.00
2016,08,17,03,54,16.00
2016,08,17,03,55,15.90
2016,08,17,03,56,15.90
2016,08,17,03,57,15.90
2016,08,17,03,58,15.90
2016,08,17,03,59,15.80
2016,08,17,04,00,15.80
2016,08,17,04,01,15.80
2016,08,17,04,02,15.80
2016,08,17,04,03,15.80
2016,08,17,04,04,15.80
2016,08,17,04,05,15.80
2016,08,17,04,06,15.70
2016,08,17,04,07,15.70
2016,08,17,04,08,15.70
2016,08,17,04,09,15.70
2016,08,17,04,10,15.70
2016,08,17,04,11,15.70
2016,08,17,04,12,15.70
2016,08,17,04,13,15.70
2016,08,17,04,14,15.70
2016,08,17,04,15,15.70
2016,08,17,04,16,15.60
2016,08,17,04,17,15.60
2016,08,17,04,18,15.60
2016,08,17,04,19,15.60
2016,08,17,04,20,15.60
2016,08,17,04,21,15.60
2016,08,17,04,22,15.50
2016,08,17,04,23,15.50
2016,08,17,04,24,15.50
2016,08,17,04,25,15.50
2016,08,17,04,26,15.40
2016,08,17,04,27,15.40
2016,08,17,04,28,15.40
2016,08,17,04,29,15.40
2016,08,17,04,30,15.40
2016,08,17,04,31,15.40
2016,08,17,04,32,15.40
2016,08,17,04,33,15.40
2016,08,17,04,34,15.40
2016,08,17,04,35,15.40
2016,08,17,04,36,15.40
2016,08,17,04,37,15.40
2016,08,17,04,38,15.40
2016,08,17,04,39,15.40
2016,08,17,04,40,15.40
2016,08,17,04,41,15.40
2016,08,17,04,42,15.30
2016,08,17,04,43,15.30
2016,08,17,04,44,15.40
2016,08,17,04,45,15.40
2016,08,17,04,46,15.40
2016,08,17,04,47,15.30
2016,08,17,04,48,15.30
2016,08,17,04,49,15.30
2016,08,17,04,50,15.30
2016,08,17,04,51,15.30
2016,08,17,04,52,15.30
2016,08,17,04,53,15.30
2016,08,17,04,54,15.30
2016,08,17,04,55,15.30
2016,08,17,04,56,15.30
2016,08,17,04,57,15.30
2016,08,17,04,58,15.30
2016,08,17,04,59,15.30
2016,08,17,05,00,15.20
2016,08,17,05,01,15.20
2016,08,17,05,02,15.20
2016,08,17,05,03,15.20
2016,08,17,05,04,15.20
2016,08,17,05,05,15.20
2016,08,17,05,06,15.20
2016,08,17,05,07,15.20
2016,08,17,05,08,15.20
2016,08,17,05,09,15.20
2016,08,17,05,10,15.20
2016,08,17,05,11,15.20
2016,08,17,05,12,15.20
2016,08,17,05,13,15.20
2016,08,17,05,14,15.20
2016,08,17,05,15,15.20
2016,08,17,05,16,15.10
2016,08,17,05,17,15.10
2016,08,17,05,18,15.10
2016,08,17,05,19,15.10
2016,08,17,05,20,15.10
2016,08,17,05,21,15.10
2016,08,17,05,22,15.10
2016,08,17,05,23,15.10
2016,08,17,05,24,15.10
2016,08,17,05,25,15.10
2016,08,17,05,26,15.10
2016,08,17,05,27,15.10
2016,08,17,05,28,15.10
2016,08,17,05,29,15.10
2016,08,17,05,30,15.00
2016,08,17,05,31,15.10
2016,08,17,05,32,15.10
2016,08,17,05,33,15.10
2016,08,17,05,34,15.00
2016,08,17,05,35,15.00
2016,08,17,05,36,15.00
2016,08,17,05,37,14.90
2016,08,17,05,38,14.90
2016,08,17,05,39,14.90
2016,08,17,05,40,14.90
2016,08,17,05,41,14.90
2016,08,17,05,42,14.90
2016,08,17,05,43,14.90
2016,08,17,05,44,14.90
2016,08,17,05,45,14.90
2016,08,17,05,46,14.90
2016,08,17,05,47,14.90
2016,08,17,05,48,14.90
2016,08,17,05,49,14.90
2016,08,17,05,50,14.90
2016,08,17,05,51,14.90
2016,08,17,05,52,14.90
2016,08,17,05,53,14.90
2016,08,17,05,54,14.90
2016,08,17,05,55,14.90
2016,08,17,05,56,14.90
2016,08,17,05,57,14.90
2016,08,17,05,58,14.90
2016,08,17,05,59,14.90
2016,08,17,06,00,14.90
2016,08,17,06,01,14.90
2016,08,17,06,02,14.90
2016,08,17,06,03,14.90
2016,08,17,06,04,14.80
2016,08,17,06,05,14.80
2016,08,17,06,06,14.80
2016,08,17,06,07,14.80
2016,08,17,06,08,14.80
2016,08,17,06,09,14.80
2016,08,17,06,10,14.80
2016,08,17,06,11,14.80
2016,08,17,06,12,14.80
2016,08,17,06,13,14.80
2016,08,17,06,14,14.80
2016,08,17,06,15,14.70
2016,08,17,06,16,14.70
2016,08,17,06,17,14.70
2016,08,17,06,18,14.60
2016,08,17,06,19,14.60
2016,08,17,06,20,14.60
2016,08,17,06,21,14.60
2016,08,17,06,22,14.50
2016,08,17,06,23,14.50
2016,08,17,06,24,14.50
2016,08,17,06,25,14.50
2016,08,17,06,26,14.50
2016,08,17,06,27,14.50
2016,08,17,06,28,14.50
2016,08,17,06,29,14.40
2016,08,17,06,30,14.40
2016,08,17,06,31,14.40
2016,08,17,06,32,14.30
2016,08,17,06,33,14.30
2016,08,17,06,34,14.30
2016,08,17,06,35,14.30
2016,08,17,06,36,14.30
2016,08,17,06,37,14.30
2016,08,17,06,38,14.30
2016,08,17,06,39,14.30
2016,08,17,06,40,14.30
2016,08,17,06,41,14.30
2016,08,17,06,42,14.20
2016,08,17,06,43,14.20
2016,08,17,06,44,14.20
2016,08,17,06,45,14.20
2016,08,17,06,46,14.10
2016,08,17,06,47,14.10
2016,08,17,06,48,14.10
2016,08,17,06,49,14.10
2016,08,17,06,50,14.00
2016,08,17,06,51,14.00
2016,08,17,06,52,14.00
2016,08,17,06,53,13.90
2016,08,17,06,54,13.90
2016,08,17,06,55,13.90
2016,08,17,06,56,13.90
2016,08,17,06,57,13.90
2016,08,17,06,58,13.80
2016,08,17,06,59,13.80
2016,08,17,07,00,13.80
2016,08,17,07,01,13.90
2016,08,17,07,02,13.90
2016,08,17,07,03,13.90
2016,08,17,07,04,13.90
2016,08,17,07,05,13.90
2016,08,17,07,06,13.80
2016,08,17,07,07,13.80
2016,08,17,07,08,13.80
2016,08,17,07,09,13.80
2016,08,17,07,10,13.70
2016,08,17,07,11,13.70
2016,08,17,07,12,13.70
2016,08,17,07,13,13.70
2016,08,17,07,14,13.70
2016,08,17,07,15,13.70
2016,08,17,07,16,13.70
2016,08,17,07,17,13.70
2016,08,17,07,18,13.70
2016,08,17,07,19,13.70
2016,08,17,07,20,13.70
2016,08,17,07,21,13.70
2016,08,17,07,22,13.70
2016,08,17,07,23,13.70
2016,08,17,07,24,13.70
2016,08,17,07,25,13.70
2016,08,17,07,26,13.70
2016,08,17,07,27,13.70
2016,08,17,07,28,13.70
2016,08,17,07,29,13.70
2016,08,17,07,30,13.60
2016,08,17,07,31,13.60
2016,08,17,07,32,13.60
2016,08,17,07,33,13.60
2016,08,17,07,34,13.60
2016,08,17,07,35,13.60
2016,08,17,07,36,13.60
2016,08,17,07,37,13.60
2016,08,17,07,38,13.60
2016,08,17,07,39,13.60
2016,08,17,07,40,13.60
2016,08,17,07,41,13.70
2016,08,17,07,42,13.70
2016,08,17,07,43,13.80
2016,08,17,07,44,13.80
2016,08,17,07,45,13.90
2016,08,17,07,46,14.00
2016,08,17,07,47,14.00
2016,08,17,07,48,14.20
2016,08,17,07,49,14.30
2016,08,17,07,50,14.40
2016,08,17,07,51,14.40
2016,08,17,07,52,14.50
2016,08,17,07,53,14.60
2016,08,17,07,54,14.70
2016,08,17,07,55,14.90
2016,08,17,07,56,15.00
2016,08,17,07,57,15.10
2016,08,17,07,58,15.20
2016,08,17,07,59,15.20
2016,08,17,08,00,15.30
2016,08,17,08,01,15.30
2016,08,17,08,02,15.40
2016,08,17,08,03,15.50
2016,08,17,08,04,15.50
2016,08,17,08,05,15.50
2016,08,17,08,06,15.60
2016,08,17,08,07,15.60
2016,08,17,08,08,15.70
2016,08,17,08,09,15.80
2016,08,17,08,10,15.80
2016,08,17,08,11,15.90
2016,08,17,08,12,15.90
2016,08,17,08,13,16.00
2016,08,17,08,14,16.00
2016,08,17,08,15,16.10
2016,08,17,08,16,16.10
2016,08,17,08,17,16.10
2016,08,17,08,18,16.20
2016,08,17,08,19,16.20
2016,08,17,08,20,16.30
2016,08,17,08,21,16.30
2016,08,17,08,22,16.30
2016,08,17,08,23,16.30
2016,08,17,08,24,16.30
2016,08,17,08,25,16.40
2016,08,17,08,26,16.40
2016,08,17,08,27,16.40
2016,08,17,08,28,16.50
2016,08,17,08,29,16.50
2016,08,17,08,30,16.50
2016,08,17,08,31,16.60
2016,08,17,08,32,16.60
2016,08,17,08,33,16.60
2016,08,17,08,34,16.60
2016,08,17,08,35,16.70
2016,08,17,08,36,16.70
2016,08,17,08,37,16.70
2016,08,17,08,38,16.70
2016,08,17,08,39,16.70
2016,08,17,08,40,16.80
2016,08,17,08,41,16.80
2016,08,17,08,42,16.80
2016,08,17,08,43,16.90
2016,08,17,08,44,16.90
2016,08,17,08,45,16.90
2016,08,17,08,46,17.00
2016,08,17,08,47,17.00
2016,08,17,08,48,17.10
2016,08,17,08,49,17.10
2016,08,17,08,50,17.10
2016,08,17,08,51,17.20
2016,08,17,08,52,17.20
2016,08,17,08,53,17.30
2016,08,17,08,54,17.30
2016,08,17,08,55,17.30
2016,08,17,08,56,17.40
2016,08,17,08,57,17.40
2016,08,17,08,58,17.50
2016,08,17,08,59,17.50
2016,08,17,09,00,17.60
2016,08,17,09,01,17.60
2016,08,17,09,02,17.60
2016,08,17,09,03,17.60
2016,08,17,09,04,17.70
2016,08,17,09,05,17.70
2016,08,17,09,06,17.80
2016,08,17,09,07,17.80
2016,08,17,09,08,17.80
2016,08,17,09,09,17.80
2016,08,17,09,10,17.90
2016,08,17,09,11,17.90
2016,08,17,09,12,17.90
2016,08,17,09,13,17.90
2016,08,17,09,14,17.90
2016,08,17,09,15,17.90
2016,08,17,09,16,18.00
2016,08,17,09,17,18.10
2016,08,17,09,18,18.10
2016,08,17,09,19,18.10
2016,08,17,09,20,18.20
2016,08,17,09,21,18.20
2016,08,17,09,22,18.30
2016,08,17,09,23,18.30
2016,08,17,09,24,18.30
2016,08,17,09,25,18.30
2016,08,17,09,26,18.30
2016,08,17,09,27,18.30
2016,08,17,09,28,18.30
2016,08,17,09,29,18.30
2016,08,17,09,30,18.30
2016,08,17,09,31,18.30
2016,08,17,09,32,18.40
2016,08,17,09,33,18.40
2016,08,17,09,34,18.50
2016,08,17,09,35,18.60
2016,08,17,09,36,18.60
2016,08,17,09,37,18.60
2016,08,17,09,38,18.60
2016,08,17,09,39,18.60
2016,08,17,09,40,18.70
2016,08,17,09,41,18.70
2016,08,17,09,42,18.80
2016,08,17,09,43,18.80
2016,08,17,09,44,18.80
2016,08,17,09,45,18.80
2016,08,17,09,46,18.90
2016,08,17,09,47,18.80
2016,08,17,09,48,18.80
2016,08,17,09,49,18.90
2016,08,17,09,50,18.90
2016,08,17,09,51,18.90
2016,08,17,09,52,18.90
2016,08,17,09,53,19.00
2016,08,17,09,54,19.00
2016,08,17,09,55,19.00
2016,08,17,09,56,19.00
2016,08,17,09,57,19.00
2016,08,17,09,58,19.00
2016,08,17,09,59,18.90
2016,08,17,10,00,18.90
2016,08,17,10,01,18.90
2016,08,17,10,02,18.90
2016,08,17,10,03,18.90
2016,08,17,10,04,18.90
2016,08,17,10,05,18.90
2016,08,17,10,06,19.00
2016,08,17,10,07,19.00
2016,08,17,10,08,19.00
2016,08,17,10,09,19.00
2016,08,17,10,10,19.00
2016,08,17,10,11,19.00
2016,08,17,10,12,18.90
2016,08,17,10,13,18.80
2016,08,17,10,14,18.80
2016,08,17,10,15,18.80
2016,08,17,10,16,18.80
2016,08,17,10,17,18.80
2016,08,17,10,18,18.80
2016,08,17,10,19,18.80
2016,08,17,10,20,18.80
2016,08,17,10,21,18.80
2016,08,17,10,22,18.80
2016,08,17,10,23,18.80
2016,08,17,10,24,18.90
2016,08,17,10,25,19.00
2016,08,17,10,26,19.00
2016,08,17,10,27,19.10
2016,08,17,10,28,19.20
2016,08,17,10,29,19.20
2016,08,17,10,30,19.20
2016,08,17,10,31,19.20
2016,08,17,10,32,19.20
2016,08,17,10,33,19.20
2016,08,17,10,34,19.20
2016,08,17,10,35,19.20
2016,08,17,10,36,19.20
2016,08,17,10,37,19.20
2016,08,17,10,38,19.30
2016,08,17,10,39,19.30
2016,08,17,10,40,19.30
2016,08,17,10,41,19.20
2016,08,17,10,42,19.20
2016,08,17,10,43,19.20
2016,08,17,10,44,19.20
2016,08,17,10,45,19.30
2016,08,17,10,46,19.30
2016,08,17,10,47,19.30
2016,08,17,10,48,19.30
2016,08,17,10,49,19.30
2016,08,17,10,50,19.30
2016,08,17,10,51,19.40
2016,08,17,10,52,19.40
2016,08,17,10,53,19.40
2016,08,17,10,54,19.40
2016,08,17,10,55,19.40
2016,08,17,10,56,19.40
2016,08,17,10,57,19.50
2016,08,17,10,58,19.60
2016,08,17,10,59,19.60
2016,08,17,11,00,19.70
2016,08,17,11,01,19.70
2016,08,17,11,02,19.70
2016,08,17,11,03,19.70
2016,08,17,11,04,19.70
2016,08,17,11,05,19.70
2016,08,17,11,06,19.70
2016,08,17,11,07,19.70
2016,08,17,11,08,19.80
2016,08,17,11,09,19.80
2016,08,17,11,10,19.90
2016,08,17,11,11,19.90
2016,08,17,11,12,20.00
2016,08,17,11,13,20.10
2016,08,17,11,14,20.10
2016,08,17,11,15,20.10
2016,08,17,11,16,20.10
2016,08,17,11,17,20.10
2016,08,17,11,18,20.20
2016,08,17,11,19,20.30
2016,08,17,11,20,20.30
2016,08,17,11,21,20.30
2016,08,17,11,22,20.30
2016,08,17,11,23,20.30
2016,08,17,11,24,20.30
2016,08,17,11,25,20.30
2016,08,17,11,26,20.30
2016,08,17,11,27,20.40
2016,08,17,11,28,20.40
2016,08,17,11,29,20.40
2016,08,17,11,30,20.40
2016,08,17,11,31,20.40
2016,08,17,11,32,20.40
2016,08,17,11,33,20.40
2016,08,17,11,34,20.40
2016,08,17,11,35,20.40
2016,08,17,11,36,20.40
2016,08,17,11,37,20.30
2016,08,17,11,38,20.30
2016,08,17,11,39,20.30
2016,08,17,11,40,20.30
2016,08,17,11,41,20.30
2016,08,17,11,42,20.30
2016,08,17,11,43,20.30
2016,08,17,11,44,20.20
2016,08,17,11,45,20.20
2016,08,17,11,46,20.30
2016,08,17,11,47,20.30
2016,08,17,11,48,20.30
2016,08,17,11,49,20.30
2016,08,17,11,50,20.30
2016,08,17,11,51,20.30
2016,08,17,11,52,20.30
2016,08,17,11,53,20.40
2016,08,17,11,54,20.40
2016,08,17,11,55,20.50
2016,08,17,11,56,20.50
2016,08,17,11,57,20.60
2016,08,17,11,58,20.60
2016,08,17,11,59,20.70
2016,08,17,12,00,20.70
2016,08,17,12,01,20.80
2016,08,17,12,02,20.80
2016,08,17,12,03,20.80
2016,08,17,12,04,20.80
2016,08,17,12,05,20.80
2016,08,17,12,06,20.80
2016,08,17,12,07,20.80
2016,08,17,12,08,20.70
2016,08,17,12,09,20.70
2016,08,17,12,10,20.70
2016,08,17,12,11,20.80
2016,08,17,12,12,20.80
2016,08,17,12,13,20.90
2016,08,17,12,14,20.90
2016,08,17,12,15,21.00
2016,08,17,12,16,21.10
2016,08,17,12,17,21.20
2016,08,17,12,18,21.30
2016,08,17,12,19,21.30
2016,08,17,12,20,21.30
2016,08,17,12,21,21.20
2016,08,17,12,22,21.20
2016,08,17,12,23,21.20
2016,08,17,12,24,21.10
2016,08,17,12,25,21.10
2016,08,17,12,26,21.10
2016,08,17,12,27,21.10
2016,08,17,12,28,21.10
2016,08,17,12,29,21.20
2016,08,17,12,30,21.20
2016,08,17,12,31,21.20
2016,08,17,12,32,21.20
2016,08,17,12,33,21.30
2016,08,17,12,34,21.30
2016,08,17,12,35,21.30
2016,08,17,12,36,21.30
2016,08,17,12,37,21.30
2016,08,17,12,38,21.30
2016,08,17,12,39,21.30
2016,08,17,12,40,21.30
2016,08,17,12,41,21.30
2016,08,17,12,42,21.40
2016,08,17,12,43,21.40
2016,08,17,12,44,21.50
2016,08,17,12,45,21.50
2016,08,17,12,46,21.60
2016,08,17,12,47,21.60
2016,08,17,12,48,21.70
2016,08,17,12,49,21.70
2016,08,17,12,50,21.80
2016,08,17,12,51,21.80
2016,08,17,12,52,21.80
2016,08,17,12,53,21.70
2016,08,17,12,54,21.70
2016,08,17,12,55,21.70
2016,08,17,12,56,21.70
2016,08,17,12,57,21.70
2016,08,17,12,58,21.70
2016,08,17,12,59,21.70
2016,08,17,13,00,21.70
2016,08,17,13,01,21.80
2016,08,17,13,02,21.80
2016,08,17,13,03,21.80
2016,08,17,13,04,21.90
2016,08,17,13,05,22.00
2016,08,17,13,06,22.00
2016,08,17,13,07,22.00
2016,08,17,13,08,22.10
2016,08,17,13,09,22.10
2016,08,17,13,10,22.10
2016,08,17,13,11,22.10
2016,08,17,13,12,22.10
2016,08,17,13,13,22.20
2016,08,17,13,14,22.20
2016,08,17,13,15,22.20
2016,08,17,13,16,22.20
2016,08,17,13,17,22.20
2016,08,17,13,18,22.20
2016,08,17,13,19,22.30
2016,08,17,13,20,22.30
2016,08,17,13,21,22.40
2016,08,17,13,22,22.40
2016,08,17,13,23,22.50
2016,08,17,13,24,22.50
2016,08,17,13,25,22.60
2016,08,17,13,26,22.60
2016,08,17,13,27,22.70
2016,08,17,13,28,22.70
2016,08,17,13,29,22.80
2016,08,17,13,30,22.80
2016,08,17,13,31,22.80
2016,08,17,13,32,22.80
2016,08,17,13,33,22.80
2016,08,17,13,34,22.80
2016,08,17,13,35,22.80
2016,08,17,13,36,22.80
2016,08,17,13,37,22.80
2016,08,17,13,38,22.90
2016,08,17,13,39,22.90
2016,08,17,13,40,22.90
2016,08,17,13,41,23.00
2016,08,17,13,42,23.10
2016,08,17,13,43,23.10
2016,08,17,13,44,23.10
2016,08,17,13,45,23.10
2016,08,17,13,46,23.10
2016,08,17,13,47,23.20
2016,08,17,13,48,23.20
2016,08,17,13,49,23.20
2016,08,17,13,50,23.20
2016,08,17,13,51,23.20
2016,08,17,13,52,23.20
2016,08,17,13,53,23.20
2016,08,17,13,54,23.30
2016,08,17,13,55,23.30
2016,08,17,13,56,23.30
2016,08,17,13,57,23.30
2016,08,17,13,58,23.30
2016,08,17,13,59,23.30
2016,08,17,14,00,23.40
2016,08,17,14,01,23.40
2016,08,17,14,02,23.40
2016,08,17,14,03,23.50
2016,08,17,14,04,23.50
2016,08,17,14,05,23.60
2016,08,17,14,06,23.60
2016,08,17,14,07,23.70
2016,08,17,14,08,23.70
2016,08,17,14,09,23.70
2016,08,17,14,10,23.70
2016,08,17,14,11,23.70
2016,08,17,14,12,23.70
2016,08,17,14,13,23.70
2016,08,17,14,14,23.80
2016,08,17,14,15,23.80
2016,08,17,14,16,23.80
2016,08,17,14,17,23.80
2016,08,17,14,18,23.80
2016,08,17,14,19,23.80
2016,08,17,14,20,23.90
2016,08,17,14,21,23.90
2016,08,17,14,22,23.90
2016,08,17,14,23,23.90
2016,08,17,14,24,23.90
2016,08,17,14,25,23.90
2016,08,17,14,26,23.90
2016,08,17,14,27,23.90
2016,08,17,14,28,24.00
2016,08,17,14,29,24.00
2016,08,17,14,30,24.00
2016,08,17,14,31,24.00
2016,08,17,14,32,23.90
2016,08,17,14,33,23.90
2016,08,17,14,34,24.00
2016,08,17,14,35,24.10
2016,08,17,14,36,24.10
2016,08,17,14,37,24.20
2016,08,17,14,38,24.20
2016,08,17,14,39,24.20
2016,08,17,14,40,24.20
2016,08,17,14,41,24.20
2016,08,17,14,42,24.20
2016,08,17,14,43,24.20
2016,08,17,14,44,24.20
2016,08,17,14,45,24.20
2016,08,17,14,46,24.20
2016,08,17,14,47,24.10
2016,08,17,14,48,24.10
2016,08,17,14,49,24.10
2016,08,17,14,50,24.10
2016,08,17,14,51,24.20
2016,08,17,14,52,24.30
2016,08,17,14,53,24.30
2016,08,17,14,54,24.30
2016,08,17,14,55,24.30
2016,08,17,14,56,24.30
2016,08,17,14,57,24.30
2016,08,17,14,58,24.30
2016,08,17,14,59,24.30
2016,08,17,15,00,24.30
2016,08,17,15,01,24.30
2016,08,17,15,02,24.30
2016,08,17,15,03,24.30
2016,08,17,15,04,24.30
2016,08,17,15,05,24.40
2016,08,17,15,06,24.40
2016,08,17,15,07,24.40
2016,08,17,15,08,24.40
2016,08,17,15,09,24.40
2016,08,17,15,10,24.50
2016,08,17,15,11,24.50
2016,08,17,15,12,24.60
2016,08,17,15,13,24.60
2016,08,17,15,14,24.60
2016,08,17,15,15,24.60
2016,08,17,15,16,24.60
2016,08,17,15,17,24.80
2016,08,17,15,18,24.90
2016,08,17,15,19,25.00
2016,08,17,15,20,25.10
2016,08,17,15,21,25.10
2016,08,17,15,22,25.10
2016,08,17,15,23,25.10
2016,08,17,15,24,25.10
2016,08,17,15,25,25.20
2016,08,17,15,26,25.20
2016,08,17,15,27,25.30
2016,08,17,15,28,25.30
2016,08,17,15,29,25.30
2016,08,17,15,30,25.30
2016,08,17,15,31,25.30
2016,08,17,15,32,25.30
2016,08,17,15,33,25.30
2016,08,17,15,34,25.20
2016,08,17,15,35,25.10
2016,08,17,15,36,25.10
2016,08,17,15,37,25.10
2016,08,17,15,38,25.20
2016,08,17,15,39,25.20
2016,08,17,15,40,25.20
2016,08,17,15,41,25.20
2016,08,17,15,42,25.10
2016,08,17,15,43,25.10
2016,08,17,15,44,25.00
2016,08,17,15,45,25.00
2016,08,17,15,46,25.00
2016,08,17,15,47,25.00
2016,08,17,15,48,25.00
2016,08,17,15,49,25.10
2016,08,17,15,50,25.10
2016,08,17,15,51,25.20
2016,08,17,15,52,25.20
2016,08,17,15,53,25.30
2016,08,17,15,54,25.40
2016,08,17,15,55,25.40
2016,08,17,15,56,25.40
2016,08,17,15,57,25.40
2016,08,17,15,58,25.30
2016,08,17,15,59,25.30
2016,08,17,16,00,25.40
2016,08,17,16,01,25.40
2016,08,17,16,02,25.40
2016,08,17,16,03,25.40
2016,08,17,16,04,25.50
2016,08,17,16,05,25.50
2016,08,17,16,06,25.60
2016,08,17,16,07,25.60
2016,08,17,16,08,25.50
2016,08,17,16,09,25.50
2016,08,17,16,10,25.50
2016,08,17,16,11,25.50
2016,08,17,16,12,25.60
2016,08,17,16,13,25.70
2016,08,17,16,14,25.80
2016,08,17,16,15,25.80
2016,08,17,16,16,25.80
2016,08,17,16,17,25.90
2016,08,17,16,18,25.90
2016,08,17,16,19,26.00
2016,08,17,16,20,26.20
2016,08,17,16,21,26.20
2016,08,17,16,22,26.20
2016,08,17,16,23,26.20
2016,08,17,16,24,26.20
2016,08,17,16,25,26.20
2016,08,17,16,26,26.20
2016,08,17,16,27,26.30
2016,08,17,16,28,26.30
2016,08,17,16,29,26.30
2016,08,17,16,30,26.30
2016,08,17,16,31,26.30
2016,08,17,16,32,26.30
2016,08,17,16,33,26.30
2016,08,17,16,34,26.20
2016,08,17,16,35,26.20
2016,08,17,16,36,26.20
2016,08,17,16,37,26.20
2016,08,17,16,38,26.30
2016,08,17,16,39,26.30
2016,08,17,16,40,26.30
2016,08,17,16,41,26.30
2016,08,17,16,42,26.30
2016,08,17,16,43,26.30
2016,08,17,16,44,26.30
2016,08,17,16,45,26.30
2016,08,17,16,46,26.20
2016,08,17,16,47,26.20
2016,08,17,16,48,26.20
2016,08,17,16,49,26.20
2016,08,17,16,50,26.20
2016,08,17,16,51,26.30
2016,08,17,16,52,26.30
2016,08,17,16,53,26.30
2016,08,17,16,54,26.30
2016,08,17,16,55,26.30
2016,08,17,16,56,26.30
2016,08,17,16,57,26.30
2016,08,17,16,58,26.20
2016,08,17,16,59,26.20
2016,08,17,17,00,26.20
2016,08,17,17,01,26.20
2016,08,17,17,02,26.30
2016,08,17,17,03,26.30
2016,08,17,17,04,26.40
2016,08,17,17,05,26.40
2016,08,17,17,06,26.40
2016,08,17,17,07,26.40
2016,08,17,17,08,26.40
2016,08,17,17,09,26.50
2016,08,17,17,10,26.50
2016,08,17,17,11,26.50
2016,08,17,17,12,26.50
2016,08,17,17,13,26.50
2016,08,17,17,14,26.60
2016,08,17,17,15,26.60
2016,08,17,17,16,26.50
2016,08,17,17,17,26.50
2016,08,17,17,18,26.40
2016,08,17,17,19,26.40